Meteo Giornale » Osservazioni meteo Stati Uniti (USA) » Barrow Post Rogers Memorial
ore: 20:53 - Osservazioni Meteo Barrow Post Rogers Memorial
Lat. 71° 17' N Lon. 156° 46' W Alt. 13 metri s.l.m.
6 °C
Coperto
Temp. 24 Ore
3 °C
7 °C
Sud-Ovest
35.2 Km/h
Dew point 3 °C
Umidità 81 %
Visibilità 10 Km
Il sole sorge alle ore 06:32
Il sole tramonta alle ore 22:22
| Data e Ora | Cielo e Fenomeni | T °C | DP °C | Um. % | Pres. hPa | Vis. km | Vento km/h | |
|---|---|---|---|---|---|---|---|---|
| Oggi h: 20:53 | Coperto | 6 | 3 | 81 | 1002 | 10 | SO 35.2 | |
| Oggi h: 20:45 | Pioggia | 6 | 4 | 86 | 1002 | 10 | SO 27.8 | |
| Oggi h: 20:31 | Pioggia Foschia | 4 | 4 | 100 | 1002 | 5 | SO 25.9 | |
| Oggi h: 20:16 | Pioggia Foschia | 4 | 4 | 100 | 1002 | 2 | O/SO 25.9 | |
| Oggi h: 20:11 | Pioggia Foschia | 4 | 4 | 100 | 1002 | 5 | O/SO 27.8 | |
| Oggi h: 19:57 | Pioggia Foschia | 4 | 4 | 100 | 1002 | 5 | O 29.6 | |
| Oggi h: 19:53 | Pioggia Foschia | 5 | 4 | 93 | 1003 | 5 | O 24 | |
| Oggi h: 19:50 | Pioggia Foschia | 5 | 4 | 93 | 1003 | 5 | O/SO 20.3 | |
| Oggi h: 19:47 | Pioggia Foschia | 6 | 4 | 86 | 1003 | 2 | O/SO 22.2 | |
| Oggi h: 19:42 | Pioggia | 6 | 4 | 86 | 1003 | 11 | SO 24 | |
| Oggi h: 19:33 | Coperto | 6 | 4 | 86 | 1002 | 10 | SO 27.8 | |
| Oggi h: 18:53 | Pioggia Foschia | 6 | 4 | 86 | 1003 | 10 | S/SO 31.5 | |
| Oggi h: 18:41 | Pioggia Foschia | 6 | 4 | 86 | 1003 | 10 | SO 35.2 | |
| Oggi h: 18:31 | Pioggia | 6 | 4 | 86 | 1003 | 10 | S/SO 35.2 | |
| Oggi h: 18:18 | Pioggia | 6 | 4 | 86 | 1003 | 10 | S/SO 31.5 | |
| Oggi h: 17:53 | Coperto | 7 | 4 | 81 | 1003 | 10 | S/SO 31.5 | |
| Oggi h: 17:25 | Pioggia | 7 | 4 | 81 | 1003 | 10 | SO 35.2 | |
| Oggi h: 16:53 | Pioggia | 7 | 4 | 81 | 1004 | 10 | SO 33.3 | |
| Oggi h: 16:48 | Pioggia | 7 | 4 | 81 | 1004 | 10 | SO 31.5 | |
| Oggi h: 16:39 | Pioggia | 7 | 4 | 81 | 1004 | 10 | SO 37 | |
| Oggi h: 16:10 | Coperto | 7 | 4 | 81 | 1004 | 10 | SO 35.2 | |
| Oggi h: 16:01 | Pioggia | 7 | 4 | 81 | 1004 | 10 | SO 25.9 | |
| Oggi h: 15:53 | Pioggia | 7 | 4 | 81 | 1004 | 10 | SO 24 | |
| Oggi h: 15:01 | Coperto | 7 | 4 | 81 | 1004 | 10 | O/SO 27.8 | |
| Oggi h: 14:53 | Coperto | 7 | 4 | 81 | 1004 | 10 | O/SO 27.8 | |
| Oggi h: 13:53 | Coperto | 6 | 4 | 86 | 1004 | 10 | O/SO 31.5 | |
| Oggi h: 12:53 | Coperto | 5 | 4 | 93 | 1004 | 10 | O/SO 25.9 | |
| Oggi h: 12:31 | Coperto | 4 | 3 | 93 | 1004 | 10 | O 25.9 | |
| Oggi h: 11:53 | Pioggia | 4 | 2 | 86 | 1004 | 10 | O/SO 27.8 | |
| Oggi h: 11:49 | Coperto | 4 | 3 | 93 | 1004 | 10 | O/SO 25.9 | |
| Oggi h: 10:53 | Pioggia | 3 | 2 | 93 | 1004 | 10 | O 24 | |
| Oggi h: 09:53 | Pioggia | 3 | 2 | 93 | 1004 | 10 | O 25.9 | |
| Oggi h: 09:15 | Pioggia | 3 | 2 | 93 | 1004 | 10 | O/SO 20.3 | |
| Oggi h: 08:53 | Pioggia | 3 | 2 | 93 | 1004 | 14 | O 24 | |
| Oggi h: 08:39 | Pioggia Foschia | 3 | 3 | 100 | 1004 | 5 | O 20.3 | |
| Oggi h: 08:33 | Pioggia Foschia | 3 | 3 | 100 | 1004 | 5 | O 20.3 | |
| Oggi h: 08:24 | Pioggia Foschia | 3 | 3 | 100 | 1004 | 3 | O 20.3 | |
| Oggi h: 07:53 | Foschia | 3 | 3 | 100 | 1004 | 2 | O 18.5 | |
| Oggi h: 07:37 | Foschia | 3 | 3 | 100 | 1004 | 5 | O 22.2 | |
| Oggi h: 07:29 | Nebbia | 3 | 3 | 100 | 1004 | 2 | O 20.3 | |
| Oggi h: 07:14 | Nebbia | 3 | 3 | 100 | 1004 | 2 | O/SO 22.2 | |
| Oggi h: 07:09 | Foschia | 4 | 3 | 93 | 1004 | 5 | O/SO 22.2 | |
| Oggi h: 06:53 | Coperto | 4 | 4 | 100 | 1003 | 10 | O/SO 20.3 | |
| Oggi h: 05:53 | Coperto | 4 | 4 | 100 | 1003 | 10 | O/SO 22.2 | |
| Oggi h: 04:53 | Foschia | 5 | 4 | 93 | 1003 | 10 | O/SO 20.3 | |
| Oggi h: 04:19 | Foschia | 5 | 4 | 93 | 1003 | 8 | O/SO 22.2 | |
| Oggi h: 03:53 | Foschia | 5 | 4 | 93 | 1003 | 8 | O/SO 24 | |
| Oggi h: 03:08 | Coperto | 5 | 4 | 93 | 1003 | 10 | O/SO 27.8 | |
| Oggi h: 02:53 | Coperto | 5 | 4 | 93 | 1003 | 10 | O/SO 27.8 | |
| Oggi h: 01:53 | Coperto | 5 | 4 | 93 | 1003 | 10 | O/SO 25.9 | |
| Oggi h: 00:53 | Coperto | 5 | 4 | 93 | 1003 | 14 | O/SO 29.6 | |
| Oggi h: 00:02 | Foschia | 5 | 5 | 100 | 1002 | 6 | O/SO 27.8 | |
| Ieri h: 23:53 | Foschia | 5 | 5 | 100 | 1002 | 2 | O/SO 31.5 | |
| Ieri h: 23:37 | Foschia | 6 | 5 | 93 | 1002 | 2 | O/SO 25.9 | |
| Ieri h: 23:22 | Foschia | 6 | 5 | 93 | 1002 | 5 | O/SO 25.9 | |
| Ieri h: 22:53 | Foschia | 6 | 5 | 93 | 1002 | 2 | O/SO 29.6 | |
| Ieri h: 22:34 | Foschia | 6 | 6 | 100 | 1002 | 5 | O/SO 25.9 | |
| Ieri h: 21:53 | Coperto | 7 | 6 | 93 | 1002 | 13 | SO 24 | |



